Time,TemperatureF,DewpointF,PressureIn,WindDirection,WindDirectionDegrees,WindSpeedMPH,WindSpeedGustMPH,Humidity,HourlyPrecipIn,Conditions,Clouds,dailyrainin,SoftwareType,DateUTC
2013-08-27 00:18:00,77.0,63.0,-100.00,WSW,238,8.0,-999.0,61,-99.99,,,-99.99,,2013-08-27 04:18:00,
2013-08-27 00:47:00,77.0,63.0,-100.00,SW,231,7.0,-999.0,62,-99.99,,,-99.99,,2013-08-27 04:47:00,
2013-08-27 00:54:00,76.0,63.0,-100.00,WSW,237,6.0,-999.0,63,-99.99,,,-99.99,,2013-08-27 04:54:00,
2013-08-27 01:13:00,76.0,63.0,-100.00,WSW,253,7.0,-999.0,64,-99.99,,,-99.99,,2013-08-27 05:13:00,
2013-08-27 01:23:00,76.0,63.0,-100.00,WSW,253,6.0,-999.0,64,-99.99,,,-99.99,,2013-08-27 05:23:00,
2013-08-27 01:34:00,76.0,63.0,-100.00,WSW,253,6.0,-999.0,64,-99.99,,,-99.99,,2013-08-27 05:34:00,
2013-08-27 01:43:00,76.0,63.0,-100.00,WSW,253,6.0,-999.0,64,-99.99,,,-99.99,,2013-08-27 05:43:00,
2013-08-27 01:52:00,75.0,63.0,-100.00,SW,231,7.0,-999.0,67,-99.99,,,-99.99,,2013-08-27 05:52:00,
2013-08-27 02:02:00,75.0,63.0,-100.00,SW,231,7.0,-999.0,67,-99.99,,,-99.99,,2013-08-27 06:02:00,
2013-08-27 02:12:00,75.0,63.0,-100.00,SW,231,7.0,-999.0,67,-99.99,,,-99.99,,2013-08-27 06:12:00,
2013-08-27 02:22:00,74.0,64.0,-100.00,SW,236,6.0,-999.0,68,-99.99,,,-99.99,,2013-08-27 06:22:00,
2013-08-27 02:32:00,74.0,64.0,-100.00,SW,236,6.0,-999.0,68,-99.99,,,-99.99,,2013-08-27 06:32:00,
2013-08-27 02:42:00,74.0,64.0,-100.00,SW,236,6.0,-999.0,68,-99.99,,,-99.99,,2013-08-27 06:42:00,
2013-08-27 02:52:00,74.0,64.0,-100.00,WSW,241,5.0,-999.0,70,-99.99,,,-99.99,,2013-08-27 06:52:00,
2013-08-27 03:02:00,74.0,64.0,-100.00,WSW,241,5.0,-999.0,70,-99.99,,,-99.99,,2013-08-27 07:02:00,
2013-08-27 03:12:00,74.0,64.0,-100.00,WSW,241,5.0,-999.0,70,-99.99,,,-99.99,,2013-08-27 07:12:00,
2013-08-27 03:22:00,74.0,64.0,-100.00,WSW,253,6.0,-999.0,70,-99.99,,,-99.99,,2013-08-27 07:22:00,
2013-08-27 03:30:00,73.0,64.0,-100.00,SSW,212,5.0,-999.0,71,-99.99,,,-99.99,,2013-08-27 07:30:00,
2013-08-27 03:32:00,74.0,64.0,-100.00,WSW,253,6.0,-999.0,70,-99.99,,,-99.99,,2013-08-27 07:32:00,
2013-08-27 03:42:00,74.0,64.0,-100.00,WSW,253,6.0,-999.0,70,-99.99,,,-99.99,,2013-08-27 07:42:00,
2013-08-27 03:52:00,73.0,64.0,-100.00,SSW,212,5.0,-999.0,71,-99.99,,,-99.99,,2013-08-27 07:52:00,
2013-08-27 04:02:00,73.0,64.0,-100.00,SSW,212,5.0,-999.0,71,-99.99,,,-99.99,,2013-08-27 08:02:00,
2013-08-27 04:12:00,73.0,64.0,-100.00,SSW,212,5.0,-999.0,71,-99.99,,,-99.99,,2013-08-27 08:12:00,
2013-08-27 04:22:00,73.0,64.0,-100.00,SSW,212,5.0,-999.0,71,-99.99,,,-99.99,,2013-08-27 08:22:00,
2013-08-27 05:22:00,74.0,64.0,-100.00,WSW,243,5.0,-999.0,70,-99.99,,,-99.99,,2013-08-27 09:22:00,
2013-08-27 05:35:00,74.0,64.0,-100.00,WSW,243,5.0,-999.0,70,-99.99,,,-99.99,,2013-08-27 09:35:00,
2013-08-27 05:43:00,74.0,64.0,-100.00,WSW,243,5.0,-999.0,70,-99.99,,,-99.99,,2013-08-27 09:43:00,
2013-08-27 05:54:00,73.0,64.0,-100.00,SSW,206,5.0,-999.0,71,-99.99,,,-99.99,,2013-08-27 09:54:00,
2013-08-27 06:05:00,73.0,64.0,-100.00,SSW,206,5.0,-999.0,71,-99.99,,,-99.99,,2013-08-27 10:05:00,
2013-08-27 06:14:00,73.0,64.0,-100.00,SSW,206,5.0,-999.0,71,-99.99,,,-99.99,,2013-08-27 10:14:00,
2013-08-27 06:25:00,73.0,64.0,-100.00,SW,226,5.0,-999.0,72,-99.99,,,-99.99,,2013-08-27 10:25:00,
2013-08-27 06:33:00,73.0,64.0,-100.00,SW,226,5.0,-999.0,72,-99.99,,,-99.99,,2013-08-27 10:33:00,
2013-08-27 06:43:00,73.0,64.0,-100.00,SW,226,5.0,-999.0,72,-99.99,,,-99.99,,2013-08-27 10:43:00,
2013-08-27 06:53:00,74.0,64.0,-100.00,WSW,238,4.0,-999.0,70,-99.99,,,-99.99,,2013-08-27 10:53:00,
2013-08-27 07:03:00,74.0,64.0,-100.00,WSW,238,4.0,-999.0,70,-99.99,,,-99.99,,2013-08-27 11:03:00,
2013-08-27 07:12:00,74.0,64.0,-100.00,WSW,238,4.0,-999.0,70,-99.99,,,-99.99,,2013-08-27 11:12:00,
2013-08-27 07:22:00,74.0,64.0,-100.00,WSW,238,5.0,-999.0,70,-99.99,,,-99.99,,2013-08-27 11:22:00,
2013-08-27 07:42:00,74.0,64.0,-100.00,WSW,240,6.0,-999.0,69,-99.99,,,-99.99,,2013-08-27 11:42:00,
2013-08-27 07:52:00,74.0,64.0,-100.00,WSW,242,6.0,-999.0,69,-99.99,,,-99.99,,2013-08-27 11:52:00,
2013-08-27 08:12:00,74.0,64.0,-100.00,SW,235,4.0,-999.0,69,-99.99,,,-99.99,,2013-08-27 12:12:00,
2013-08-27 08:22:00,74.0,64.0,-100.00,WSW,237,4.0,-999.0,69,-99.99,,,-99.99,,2013-08-27 12:22:00,
2013-08-27 08:42:00,75.0,64.0,-100.00,SW,222,3.0,-999.0,67,-99.99,,,-99.99,,2013-08-27 12:42:00,
2013-08-27 08:52:00,75.0,64.0,-100.00,SW,235,4.0,-999.0,67,-99.99,,,-99.99,,2013-08-27 12:52:00,
2013-08-27 09:12:00,76.0,64.0,-100.00,West,272,4.0,-999.0,66,-99.99,,,-99.99,,2013-08-27 13:12:00,
2013-08-27 09:22:00,77.0,64.0,-100.00,WNW,282,9.0,-999.0,64,-99.99,,,-99.99,,2013-08-27 13:22:00,
2013-08-27 09:42:00,78.0,65.0,-100.00,WNW,288,9.0,-999.0,63,-99.99,,,-99.99,,2013-08-27 13:42:00,
2013-08-27 09:52:00,79.0,65.0,-100.00,WNW,290,9.0,-999.0,62,-99.99,,,-99.99,,2013-08-27 13:52:00,
2013-08-27 10:11:00,79.0,65.0,-100.00,WNW,296,11.0,-999.0,61,-99.99,,,-99.99,,2013-08-27 14:11:00,
2013-08-27 10:22:00,80.0,66.0,-100.00,NW,308,9.0,-999.0,61,-99.99,,,-99.99,,2013-08-27 14:22:00,
2013-08-27 10:42:00,80.0,66.0,-100.00,NW,307,11.0,-999.0,62,-99.99,,,-99.99,,2013-08-27 14:42:00,
2013-08-27 10:53:00,81.0,66.0,-100.00,NW,312,11.0,-999.0,60,-99.99,,,-99.99,,2013-08-27 14:53:00,
2013-08-27 11:11:00,82.0,67.0,-100.00,NW,317,11.0,-999.0,59,-99.99,,,-99.99,,2013-08-27 15:11:00,
2013-08-27 11:22:00,82.0,67.0,-100.00,NW,315,10.0,-999.0,59,-99.99,,,-99.99,,2013-08-27 15:22:00,
2013-08-27 11:45:00,83.0,67.0,-100.00,NW,306,9.0,-999.0,58,-99.99,,,-99.99,,2013-08-27 15:45:00,
2013-08-27 11:58:00,83.0,67.0,-100.00,NW,318,10.0,-999.0,57,-99.99,,,-99.99,,2013-08-27 15:58:00,
2013-08-27 12:17:00,83.0,67.0,-100.00,NW,312,11.0,-999.0,56,-99.99,,,-99.99,,2013-08-27 16:17:00,
2013-08-27 12:28:00,84.0,67.0,-100.00,NW,326,10.0,-999.0,56,-99.99,,,-99.99,,2013-08-27 16:28:00,
2013-08-27 12:46:00,84.0,67.0,-100.00,NNW,334,8.0,-999.0,56,-99.99,,,-99.99,,2013-08-27 16:46:00,
2013-08-27 12:55:00,84.0,67.0,-100.00,NW,324,8.0,-999.0,56,-99.99,,,-99.99,,2013-08-27 16:55:00,
2013-08-27 13:13:00,84.0,67.0,-100.00,NNW,336,10.0,-999.0,56,-99.99,,,-99.99,,2013-08-27 17:13:00,
2013-08-27 13:23:00,84.0,67.0,-100.00,NW,326,10.0,-999.0,55,-99.99,,,-99.99,,2013-08-27 17:23:00,
2013-08-27 13:43:00,84.0,67.0,-100.00,NW,321,10.0,-999.0,56,-99.99,,,-99.99,,2013-08-27 17:43:00,
2013-08-27 13:52:00,84.0,67.0,-100.00,NW,316,8.0,-999.0,55,-99.99,,,-99.99,,2013-08-27 17:52:00,
2013-08-27 14:12:00,85.0,67.0,-100.00,NNW,338,7.0,-999.0,54,-99.99,,,-99.99,,2013-08-27 18:12:00,
2013-08-27 14:22:00,85.0,66.0,-100.00,NW,325,11.0,-999.0,51,-99.99,,,-99.99,,2013-08-27 18:22:00,
2013-08-27 14:42:00,86.0,65.0,-100.00,NNW,330,8.0,-999.0,49,-99.99,,,-99.99,,2013-08-27 18:42:00,
2013-08-27 14:53:00,87.0,65.0,-100.00,NNW,331,8.0,-999.0,47,-99.99,,,-99.99,,2013-08-27 18:53:00,
2013-08-27 15:12:00,86.0,65.0,-100.00,NW,320,9.0,-999.0,48,-99.99,,,-99.99,,2013-08-27 19:12:00,
2013-08-27 15:22:00,87.0,65.0,-100.00,NW,326,8.0,-999.0,47,-99.99,,,-99.99,,2013-08-27 19:22:00,
2013-08-27 15:42:00,87.0,65.0,-100.00,NNW,327,9.0,-999.0,47,-99.99,,,-99.99,,2013-08-27 19:42:00,
2013-08-27 15:52:00,87.0,65.0,-100.00,NNW,340,9.0,-999.0,48,-99.99,,,-99.99,,2013-08-27 19:52:00,
2013-08-27 16:12:00,87.0,65.0,-100.00,NW,317,9.0,-999.0,46,-99.99,,,-99.99,,2013-08-27 20:12:00,